Location: Ch�tillon
(48.8024°N, 2.2935°E)
Time: 18:51:32
(UTC+00:00)

RS-15 - Pass Details

Date: 30 June 2022
Orbit: 1881 x 2163 km, 64.8° (Epoch: 11 August)

Event Time Altitude Azimuth Distance (km) Brightness Sun altitude
Rises 02:31:58 0° 317° (NW) 5,695 10.6 -9.9°
Reaches altitude 10° 02:37:51 10° 296° (WNW) 4,664 9.9 -9.3°
Maximum altitude 02:43:16 14° 269° (W) 4,272 9.4 -8.8°
Drops below altitude 10° 02:48:38 10° 241° (WSW) 4,579 9.4 -8.2°
Enters shadow 02:50:16 - 234° (SW) 4,796 9.4 -8.0°
